Logan, UT

10:23 AM MST on December 11, 2019 (GMT -0700)
Logan-Cache

Weather History for KLGU - November, 2019

Change the Weather History Date:

Saturday, November 16, 2019

  Actual Average Record
Temperature  
Mean Temperature 41 °F -  
Max Temperature 55 °F 45 °F 61 °F (1967)
Min Temperature 27 °F 23 °F -2 °F (1978)
Degree Days  
Heating Degree Days 24    
Moisture  
Dew Point 28 °F    
Average Humidity 64    
Maximum Humidity 85    
Minimum Humidity 35    
Precipitation  
Precipitation 0.00 in - - ()
Sea Level Pressure  
Sea Level Pressure 30.24 in    
Wind  
Wind Speed 5 mph ()    
Max Wind Speed 18 mph    
Max Gust Speed 23 mph    
Visibility 10.0 miles    
Events      
Averages and records for this station are not official NWS values.
T = Trace of Precipitation, MM = Missing Value Source: Averaged Metar Reports

Daily Weather History Graph

Daily Weather History Graph

Search for Another Location

Airport or City:

Astronomy

Nov. 16, 2019 Rise Set
Actual Time 7:17 AM MST 5:06 PM MST
Civil Twilight 6:47 AM MST 5:36 PM MST
Nautical Twilight 6:14 AM MST 6:09 PM MST
Astronomical Twilight 5:41 AM MST 6:42 PM MST
Moon 8:41 PM MST (11/16) 11:16 AM MST (11/16)
Length of Visible Light 10h 48m
Length of Day
9h 48m
Waning Gibbous, 82% of the Moon is Illuminated
Nov 16
Waning Gibbous
Nov 19
Last Quarter
Nov 26
New
Dec 3
First Quarter
Dec 11
Full

Hourly Weather History & Observations

Time (MST) Temp. Windchill Dew Point Humidity Pressure Visibility Wind Dir Wind Speed Gust Speed Precip Events Conditions
12:51 AM 37.0 °F 32.4 °F 30.0 °F 76% 30.14 in 10.0 mi NNW 5.8 mph - N/A   Mostly Cloudy
1:51 AM 39.0 °F - 30.0 °F 70% 30.12 in 10.0 mi Calm Calm - N/A   Overcast
2:51 AM 36.0 °F 32.1 °F 28.9 °F 76% 30.14 in 10.0 mi SSE 4.6 mph - N/A   Mostly Cloudy
3:51 AM 33.1 °F 30.0 °F 27.0 °F 78% 30.14 in 10.0 mi ENE 3.5 mph - N/A   Mostly Cloudy
4:51 AM 37.9 °F - 28.9 °F 70% 30.15 in 10.0 mi Calm Calm - N/A   Mostly Cloudy
5:51 AM 35.1 °F - 30.0 °F 82% 30.20 in 10.0 mi Calm Calm - N/A   Overcast
6:51 AM 36.0 °F 33.3 °F 30.0 °F 79% 30.22 in 10.0 mi East 3.5 mph - N/A   Scattered Clouds
7:51 AM 35.1 °F 28.6 °F 30.0 °F 82% 30.24 in 10.0 mi NNW 8.1 mph - N/A   Overcast
8:51 AM 42.1 °F 40.2 °F 30.9 °F 65% 30.25 in 10.0 mi North 3.5 mph - N/A   Overcast
9:51 AM 46.9 °F - 34.0 °F 61% 30.26 in 10.0 mi North 9.2 mph - N/A   Mostly Cloudy
10:51 AM 51.1 °F - 30.9 °F 46% 30.24 in 10.0 mi NNW 17.3 mph - N/A   Overcast
11:51 AM 52.0 °F - 28.0 °F 40% 30.22 in 10.0 mi NW 16.1 mph - N/A   Overcast
12:51 PM 52.0 °F - 27.0 °F 38% 30.22 in 10.0 mi NNW 15.0 mph 20.7 mph N/A   Scattered Clouds
1:51 PM 55.0 °F - 28.0 °F 35% 30.20 in 10.0 mi North 18.4 mph 23.0 mph N/A   Mostly Cloudy
2:51 PM 53.1 °F - 27.0 °F 37% 30.23 in 10.0 mi NNW 16.1 mph - N/A   Clear
3:51 PM 52.0 °F - 28.0 °F 40% 30.25 in 10.0 mi North 13.8 mph - N/A   Clear
4:51 PM 46.9 °F - 28.0 °F 48% 30.27 in 10.0 mi North 10.4 mph - N/A   Clear
5:51 PM 42.1 °F 39.2 °F 28.0 °F 58% 30.30 in 10.0 mi NNW 4.6 mph - N/A   Clear
6:51 PM 37.0 °F 34.5 °F 27.0 °F 67% 30.33 in 10.0 mi SW 3.5 mph - N/A   Clear
8:51 PM 30.9 °F 26.2 °F 26.1 °F 82% 30.35 in 10.0 mi SE 4.6 mph - N/A   Clear
9:51 PM 30.0 °F - 24.1 °F 79% 30.35 in 10.0 mi Calm Calm - N/A   Clear
10:51 PM 27.0 °F - 23.0 °F 85% 30.36 in 10.0 mi Calm Calm - N/A   Clear
11:51 PM 28.9 °F - 24.1 °F 82% 30.35 in 10.0 mi Calm Calm - N/A   Clear